Weather History for KFAT - March, 2013

Change the Weather History Date:

Sunday, March 31, 2013

  Actual Average Record
Temperature  
Mean Temperature 65 °F 58 °F  
Max Temperature 75 °F 70 °F 89 °F (1966)
Min Temperature 55 °F 47 °F 31 °F (1905)
Degree Days  
Heating Degree Days 0    
Month to date heating degree days 107  
Since 1 July heating degree days 1699  
Cooling Degree Days 0    
Month to date cooling degree days 23  
Year to date cooling degree days 23  
Growing Degree Days 15 (Base 50)    
Moisture  
Dew Point 49 °F    
Average Humidity 59    
Maximum Humidity 93    
Minimum Humidity 25    
Precipitation  
Precipitation 0.32 in 0.05 in 1.08 in (1978)
Month to date precipitation 0.65 2.03  
Year to date precipitation 2.12 6.25  
Since 1 July precipitation 5.51  
Snow  
Snow 0.00 in - - ()
Month to date snowfall 0.0  
Since 1 July snowfall 0.0  
Snow Depth 0.00 in    
Sea Level Pressure  
Sea Level Pressure 30.04 in    
Wind  
Wind Speed 6 mph (South)    
Max Wind Speed 22 mph    
Max Gust Speed 31 mph    
Visibility 9 miles    
Events Rain , Thunderstorm    
T = Trace of Precipitation, MM = Missing Value Source: NWS Daily Summary

Daily Weather History Graph

Daily Weather History Graph

Search for Another Location

Airport or City:

Trip Planner

Search our weather history database for the weather conditions in past years. The results will help you decide how hot, cold, wet, or windy it might be!

Date:

Astronomy

Mar. 31, 2013 Rise Set
Actual Time 6:45 AM PDT 7:20 PM PDT
Civil Twilight 6:19 AM PDT 7:46 PM PDT
Nautical Twilight 5:49 AM PDT 8:17 PM PDT
Astronomical Twilight 5:17 AM PDT 8:48 PM PDT
Moon No Moon Rise 9:44 AM PDT (3/31)
Length of Visible Light 13h 27m
Length of Day
12h 34m
Waning Gibbous, 76% of the Moon is Illuminated
Mar 31
Waning Gibbous
Apr 2
Last Quarter
Apr 10
New
Apr 18
First Quarter
Apr 25
Full

Hourly Weather History & Observations

Time (PDT) Temp. Dew Point Humidity Pressure Visibility Wind Dir Wind Speed Gust Speed Precip Events Conditions
12:53 AM 64.9 °F 51.1 °F 61% 30.04 in 10.0 mi West 9.2 mph - N/A   Overcast
1:53 AM 60.1 °F 55.0 °F 83% 30.06 in 10.0 mi NW 9.2 mph - 0.04 in Rain Light Rain
2:53 AM 57.9 °F 55.0 °F 90% 30.06 in 3.0 mi North 5.8 mph - 0.12 in Rain Heavy Rain
3:53 AM 57.9 °F 55.0 °F 90% 30.07 in 6.0 mi NW 4.6 mph - 0.12 in Rain Light Rain
4:53 AM 59.0 °F 55.9 °F 90% 30.07 in 5.0 mi ENE 6.9 mph - 0.02 in Rain Light Rain
5:53 AM 59.0 °F 55.0 °F 87% 30.07 in 10.0 mi NE 5.8 mph - 0.01 in   Overcast
6:53 AM 59.0 °F 55.0 °F 87% 30.09 in 10.0 mi East 3.5 mph - N/A   Overcast
7:53 AM 59.0 °F 55.0 °F 87% 30.10 in 10.0 mi East 4.6 mph - N/A   Scattered Clouds
8:53 AM 62.1 °F 55.9 °F 80% 30.10 in 10.0 mi East 6.9 mph - N/A   Mostly Cloudy
9:53 AM 64.0 °F 55.0 °F 73% 30.10 in 10.0 mi SSE 5.8 mph - N/A   Mostly Cloudy
10:53 AM 66.9 °F 53.1 °F 61% 30.09 in 10.0 mi Variable 4.6 mph - N/A   Mostly Cloudy
11:53 AM 69.1 °F 53.1 °F 57% 30.09 in 10.0 mi West 5.8 mph - N/A   Mostly Cloudy
12:53 PM 69.1 °F 50.0 °F 51% 30.07 in 10.0 mi SSW 6.9 mph - N/A   Mostly Cloudy
1:53 PM 71.1 °F 48.0 °F 44% 30.04 in 10.0 mi SW 10.4 mph - N/A   Mostly Cloudy
2:53 PM 73.0 °F 46.0 °F 38% 30.01 in 10.0 mi Calm Calm - N/A   Scattered Clouds
3:53 PM 73.0 °F 42.1 °F 33% 29.99 in 10.0 mi SSE 6.9 mph - N/A   Scattered Clouds
4:53 PM 73.9 °F 39.9 °F 29% 29.98 in 10.0 mi South 9.2 mph - N/A   Scattered Clouds
5:53 PM 73.0 °F 36.0 °F 26% 29.96 in 10.0 mi South 3.5 mph - N/A   Scattered Clouds
6:53 PM 71.1 °F 41.0 °F 34% 29.96 in 10.0 mi South 6.9 mph - N/A   Scattered Clouds
7:53 PM 69.1 °F 46.9 °F 45% 29.97 in 10.0 mi South 13.8 mph - N/A   Mostly Cloudy
8:32 PM 64.4 °F 48.2 °F 56% 30.01 in 8.0 mi WSW 11.5 mph 31.1 mph 0.01 in Thunderstorm Thunderstorm
8:53 PM 63.0 °F 45.0 °F 52% 30.00 in 10.0 mi NW 16.1 mph 24.2 mph 0.01 in Thunderstorm Thunderstorm
9:03 PM 64.4 °F 42.8 °F 45% 30.01 in 10.0 mi Variable 5.8 mph - N/A Thunderstorm Thunderstorm
9:44 PM 60.8 °F 48.2 °F 63% 30.04 in 10.0 mi NNW 8.1 mph - N/A   Mostly Cloudy
9:53 PM 60.1 °F 48.9 °F 67% 30.04 in 10.0 mi North 6.9 mph - N/A   Scattered Clouds
10:53 PM 57.9 °F 48.9 °F 72% 30.05 in 10.0 mi NE 4.6 mph - N/A   Partly Cloudy
11:53 PM 57.0 °F 46.9 °F 69% 30.05 in 10.0 mi Calm Calm - N/A   Scattered Clouds